This demonstration page uses our WeatherBlox Daily Observations layout. Learn more.

39.51506, -84.39828

Hourly Observations for August 16, 2020

Temp ( °F °C ) Dew Point ( °F °C ) Humidity (%) Winds ( mph kmh ) Pressure ( in mb ) Visibility ( mi km ) Precip ( " mm )
12:15 am 00:15 Clear 71 21.9 68 20 89 89 Calm 29.94 1014 10 16.0934 0 0
12:35 am 00:35 Clear 71 21.6 68 20 91 91 E 5 7 29.93 1014 10 16.0934 0 0
12:55 am 00:55 Clear 71 21.6 68 20.1 91 91 E 5 7 29.93 1014 10 16.0934 0 0
1:15 am 01:15 Clear 71 21.6 68 20.1 91 91 Calm 29.94 1014 10 16.0934 0 0
1:35 am 01:35 Clear 69 20.8 68 19.9 95 95 Calm 29.94 1014 10 16.0934 0 0
1:55 am 01:55 Clear 69 20.5 68 20.1 98 98 Calm 29.95 1014 10 16.0934 0 0
2:15 am 02:15 Clear with Mist and Fog 69 20.3 68 20.1 99 99 Calm 29.94 1014 7 11.26538 0 0
2:35 am 02:35 Clear 68 20.1 68 19.9 99 99 Calm 29.94 1014 10 16.0934 0 0
2:55 am 02:55 Clear 68 19.9 67 19.6 98 98 Calm 29.93 1014 10 16.0934 0 0
3:15 am 03:15 Clear 67 19.7 67 19.6 99 99 Calm 29.94 1014 10 16.0934 0 0
3:35 am 03:35 Clear 68 19.9 67 19.6 98 98 Calm 29.93 1014 10 16.0934 0 0
3:55 am 03:55 Clear 68 19.9 67 19.6 98 98 Calm 29.92 1013 10 16.0934 0 0
4:15 am 04:15 Clear 67 19.5 67 19.3 99 99 Calm 29.93 1013 10 16.0934 0 0
4:35 am 04:35 Partly Cloudy 68 20 68 19.9 99 99 ESE 3 6 29.92 1013 10 16.0934 0 0
4:55 am 04:55 Partly Cloudy 68 20.1 68 19.9 99 99 Calm 29.92 1013 10 16.0934 0 0
5:15 am 05:15 Partly Cloudy 68 20.1 68 20 99 99 Calm 29.92 1013 10 16.0934 0 0
5:35 am 05:35 Mostly Cloudy 68 20.1 68 20.1 100 100 Calm 29.92 1013 7 11.26538 0 0
5:55 am 05:55 Mostly Cloudy with Mist and Fog 68 20 68 20 100 100 ESE 3 6 29.92 1013 7 11.26538 0 0
6:15 am 06:15 Cloudy with Mist and Fog 66 19 66 19 100 100 Calm 29.94 1014 5 8.0467 0 0
6:35 am 06:35 Cloudy with Haze 66 19 N/A N/A Calm 29.94 1014 7 11.26538 0 0
6:55 am 06:55 Cloudy with Haze 68 20 N/A N/A Calm 29.93 1014 5 8.0467 0 0
7:15 am 07:15 Cloudy with Mist and Fog 69 20.5 69 20.5 100 100 Calm 29.93 1014 5 8.0467 0 0
7:35 am 07:35 Cloudy with Mist and Fog 69 20.7 69 20.5 99 99 S 3 6 29.94 1014 5 8.0467 0 0
7:55 am 07:55 Cloudy with Mist and Fog 70 20.9 69 20.7 99 99 SSW 5 7 29.94 1014 4 6.43736 0 0
8:15 am 08:15 Cloudy with Mist and Fog 70 21.1 69 20.8 98 98 SSW 3 6 29.94 1014 4 6.43736 0 0
8:35 am 08:35 Cloudy with Mist and Fog 70 21.3 70 20.9 98 98 S 3 6 29.94 1014 5 8.0467 0 0
8:55 am 08:55 Cloudy with Mist and Fog 71 21.5 70 20.9 96 96 SSW 5 7 29.94 1014 7 11.26538 0 0
9:15 am 09:15 Cloudy 72 22.3 70 21.2 94 94 SSW 6 9 29.93 1014 7 11.26538 0 0
9:35 am 09:35 Mostly Cloudy 74 23.2 70 21.3 89 89 WSW 5 7 29.93 1013 10 16.0934 0 0
9:55 am 09:55 Partly Cloudy 74 23.6 71 21.4 88 88 SW 5 7 29.93 1013 10 16.0934 0 0
10:15 am 10:15 Partly Cloudy 75 24 71 21.5 86 86 SW 5 7 29.94 1014 10 16.0934 0 0
10:35 am 10:35 Partly Cloudy 76 24.4 71 21.6 84 84 W 5 7 29.93 1014 10 16.0934 0 0
10:55 am 10:55 Partly Cloudy 78 25.3 71 21.9 82 82 SW 5 7 29.93 1014 10 16.0934 0 0
11:15 am 11:15 Sunny 79 26 72 22 79 79 W 5 7 29.93 1014 10 16.0934 0 0
11:35 am 11:35 Mostly Cloudy 81 27.1 73 22.5 76 76 W 6 9 29.93 1013 10 16.0934 0 0
11:55 am 11:55 Mostly Cloudy N/A N/A N/A NW 10 17 N/A 10 16.0934 0 0
12:15 pm 12:15 Partly Cloudy 81 27 72 22 74 74 W 9 15 29.93 1013 10 16.0934 0 0
12:35 pm 12:35 Mostly Cloudy 81 27 72 22 74 74 WNW 13 20 29.94 1014 10 16.0934 0 0
12:55 pm 12:55 Partly Cloudy N/A N/A N/A NW 14 22 N/A 10 16.0934 0 0
1:15 pm 13:15 Mostly Cloudy N/A N/A N/A NW 13 20 N/A 10 16.0934 0 0
1:35 pm 13:35 Partly Cloudy N/A N/A N/A NW 15 24 N/A 10 16.0934 0 0
1:55 pm 13:55 Partly Cloudy N/A N/A N/A NNW 13 20 N/A 10 16.0934 0 0
2:15 pm 14:15 Partly Cloudy 84 29 70 21 62 62 N 14 22 29.92 1013 10 16.0934 0 0
2:35 pm 14:35 Partly Cloudy N/A N/A N/A N 13 20 N/A 10 16.0934 0 0
2:55 pm 14:55 Partly Cloudy N/A N/A N/A NNW 15 24 N/A 10 16.0934 0 0
3:15 pm 15:15 Partly Cloudy N/A N/A N/A NNW 15 24 N/A 10 16.0934 0 0
3:35 pm 15:35 Partly Cloudy N/A N/A N/A N 9 15 N/A 10 16.0934 0 0
3:55 pm 15:55 Partly Cloudy 83 28.5 65 18.6 55 55 WNW 9 15 29.92 1013 10 16.0934 0 0
4:15 pm 16:15 Partly Cloudy N/A N/A N/A NNW 10 17 N/A 10 16.0934 0 0
4:35 pm 16:35 Sunny N/A N/A N/A N 13 20 N/A 10 16.0934 0 0
4:55 pm 16:55 Sunny N/A N/A N/A WNW 7 11 N/A 10 16.0934 0 0
5:15 pm 17:15 Mostly Cloudy N/A N/A N/A NW 13 20 N/A 10 16.0934 0 0
5:35 pm 17:35 Partly Cloudy N/A N/A N/A WNW 14 22 N/A 10 16.0934 0 0
5:55 pm 17:55 Partly Cloudy N/A N/A N/A NNW 13 20 N/A 10 16.0934 0 0
6:15 pm 18:15 Sunny 82 28 63 17 51 51 NW 9 15 29.93 1013 10 16.0934 0 0
6:35 pm 18:35 Sunny 82 28 63 17 51 51 NNW 7 11 29.92 1013 10 16.0934 0 0
6:55 pm 18:55 Sunny 82 27.7 63 17 52 52 NW 6 9 29.92 1013 10 16.0934 0 0
7:15 pm 19:15 Sunny 82 28 63 17 51 51 NW 7 11 29.93 1013 10 16.0934 0 0
7:35 pm 19:35 Sunny 81 27 63 17 54 54 NNW 5 7 29.93 1013 10 16.0934 0 0
7:55 pm 19:55 Sunny 79 26 62 16.6 56 56 NW 3 6 29.93 1014 10 16.0934 0 0
8:15 pm 20:15 Sunny 76 24.7 62 16.8 62 62 NW 6 9 29.94 1014 10 16.0934 0 0
8:35 pm 20:35 Clear 75 24 62 16.6 63 63 Calm 29.95 1014 10 16.0934 0 0
8:55 pm 20:55 Clear 71 21.6 65 18.3 82 82 WNW 3 6 29.96 1015 10 16.0934 0 0
9:15 pm 21:15 Clear 70 21 63 17.2 79 79 NW 6 9 29.97 1015 10 16.0934 0 0
9:35 pm 21:35 Clear 72 22 61 16.2 70 70 Calm 29.97 1015 10 16.0934 0 0
9:55 pm 21:55 Clear 73 22.6 60 15.4 64 64 NNW 5 7 29.97 1015 10 16.0934 0 0
10:15 pm 22:15 Clear 72 22.3 59 15.1 64 64 NNW 5 7 29.97 1015 10 16.0934 0 0
10:35 pm 22:35 Clear 71 21.9 59 15.2 66 66 NNW 5 7 29.98 1015 10 16.0934 0 0
10:55 pm 22:55 Clear 69 20.7 60 15.4 72 72 Calm 29.97 1015 10 16.0934 0 0
11:15 pm 23:15 Clear 67 19.6 60 15.8 79 79 Calm 29.98 1015 10 16.0934 0 0
11:35 pm 23:35 Clear 66 19 60 15.6 81 81 Calm 29.99 1015 7 11.26538 0 0
11:55 pm 23:55 Clear 64 18 60 15.5 85 85 Calm 29.99 1016 10 16.0934 0 0

Powered by AerisWeather